This is the latest recevied weather packets stored in our database for station/object PA1CD-13. If no packets are shown the sender has not sent any weather packets the latest 10 day(s).
| Time | Temp. | Humidity | Pressure | Rain* | Wind** | Luminosity | Snow |
|---|---|---|---|---|---|---|---|
| 1778335770 | 16.67° C | 59% | 1017.1 hPa | 0 mm | - | 324 W/m² | - |
| 1778335633 | 16.67° C | 59% | 1016.9 hPa | 0 mm | - | 324 W/m² | - |
| 1778335511 | 16.67° C | 59% | 1017 hPa | 0 mm | - | 313 W/m² | - |
| 1778335383 | 16.67° C | 59% | 1017.2 hPa | 0 mm | - | 308 W/m² | - |
| 1778335263 | 16.67° C | 59% | 1017.1 hPa | 0 mm | - | 315 W/m² | - |
| 1778335143 | 16.67° C | 59% | 1017.1 hPa | 0 mm | - | 315 W/m² | - |
| 1778335022 | 16.67° C | 59% | 1017.1 hPa | 0 mm | - | 308 W/m² | - |
| 1778334903 | 16.67° C | 59% | 1017.1 hPa | 0 mm | - | 310 W/m² | - |
| 1778334783 | 16.67° C | 59% | 1017.2 hPa | 0 mm | - | 315 W/m² | - |
| 1778334662 | 16.67° C | 58% | 1017.2 hPa | 0 mm | - | 290 W/m² | - |
| 1778334542 | 16.67° C | 58% | 1017.3 hPa | 0 mm | - | 290 W/m² | - |
| 1778334424 | 16.67° C | 58% | 1017.3 hPa | 0 mm | - | 290 W/m² | - |
| 1778334181 | 16.67° C | 58% | 1017.3 hPa | 0 mm | - | 294 W/m² | - |
| 1778334062 | 16.67° C | 58% | 1017.3 hPa | 0 mm | - | 302 W/m² | - |
| 1778333943 | 16.67° C | 59% | 1017.3 hPa | 0 mm | - | 317 W/m² | - |
| 1778333823 | 16.67° C | 59% | 1017.3 hPa | 0 mm | - | 339 W/m² | - |
| 1778333703 | 16.67° C | 59% | 1017.3 hPa | 0 mm | - | 339 W/m² | - |
| 1778333581 | 16.67° C | 60% | 1017.3 hPa | 0 mm | - | 336 W/m² | - |
| 1778333464 | 16.11° C | 60% | 1017.4 hPa | 0 mm | - | 332 W/m² | - |
| 1778333342 | 16.11° C | 59% | 1017.4 hPa | 0 mm | - | 317 W/m² | - |
| 1778333222 | 16.67° C | 59% | 1017.5 hPa | 0 mm | - | 302 W/m² | - |
| 1778333103 | 16.67° C | 58% | 1017.5 hPa | 0 mm | - | 299 W/m² | - |
| 1778332982 | 16.11° C | 58% | 1017.5 hPa | 0 mm | - | 295 W/m² | - |
| 1778332863 | 16.11° C | 58% | 1017.5 hPa | 0 mm | - | 273 W/m² | - |
| 1778332742 | 16.11° C | 58% | 1017.6 hPa | 0 mm | - | 273 W/m² | - |
* Rain latest hour (hover to see other rain measurements)
** Current wind speed in m/s (hover to see current wind gust speed)